Location: Gajan
(43.0218°N, 1.1244°E)
Time: 01:57:12
(UTC+00:00)

ERS-1 Rocket - Pass Details

Date: 22 April 2021
Orbit: 753 x 757 km, 98.4° (Epoch: 15 May)

Event Time Altitude Azimuth Distance (km) Brightness Sun altitude
Exits shadow 21:33:52 84° 102° (ESE) 763 2.8 -25.9°
Maximum altitude 21:33:57 85° 75° (ENE) 763 2.8 -25.9°
Drops below altitude 10° 21:38:59 10° 348° (NNW) 2,287 6.3 -26.5°
Sets 21:41:18 0° 348° (NNW) 3,216 7.2 -26.7°
